CEB494 RPMR-RPVM

Flight info

Callsign CEB494
Flight time 0h 48m
Altitude 32000
Route LATIA4P LATIA W6 LUMVI DCT COBOL COBOL3P
Aircraft A320/M-SDE3FGHIRWY/LB1

Departure

Time 2026-05-06 07:59
Airport General Santos International Airport (RPMR)

Arrival

Time 2026-05-06 08:47
Airport Mactan Cebu International Airport (RPVM)
Time Latitude Longitude Altitude Speed Heading
2026-05-06 07:24 6.05714 125.09956 514 ft 0 kts 83°
2026-05-06 07:37 6.05714 125.09955 514 ft 0 kts 83°
2026-05-06 07:39 6.05714 125.09956 514 ft 0 kts 83°
2026-05-06 07:40 6.05714 125.09955 514 ft 0 kts 83°
2026-05-06 07:40 6.05713 125.09943 514 ft 2 kts 83°
2026-05-06 07:41 6.05711 125.09926 514 ft 2 kts 85°
2026-05-06 07:41 6.05710 125.09910 514 ft 2 kts 89°
2026-05-06 07:41 6.05711 125.09893 514 ft 2 kts 104°
2026-05-06 07:41 6.05720 125.09880 514 ft 2 kts 167°
2026-05-06 07:42 6.05726 125.09879 514 ft 0 kts 172°
2026-05-06 07:47 6.05704 125.09882 514 ft 7 kts 173°
2026-05-06 07:47 6.05634 125.09890 514 ft 14 kts 173°
2026-05-06 07:47 6.05519 125.09904 514 ft 11 kts 174°
2026-05-06 07:47 6.05507 125.09905 514 ft 2 kts 173°
2026-05-06 07:48 6.05494 125.09907 514 ft 1 kts 173°
2026-05-06 07:48 6.05489 125.09907 514 ft 1 kts 173°
2026-05-06 07:48 6.05456 125.09911 514 ft 6 kts 178°
2026-05-06 07:48 6.05428 125.09899 514 ft 3 kts 224°
2026-05-06 07:49 6.05419 125.09884 514 ft 2 kts 247°
2026-05-06 07:49 6.05418 125.09879 514 ft 1 kts 253°
2026-05-06 07:49 6.05412 125.09837 514 ft 11 kts 262°
2026-05-06 07:49 6.05401 125.09754 515 ft 10 kts 263°
2026-05-06 07:50 6.05399 125.09740 515 ft 1 kts 262°
2026-05-06 07:50 6.05396 125.09715 515 ft 7 kts 262°
2026-05-06 07:50 6.05360 125.09670 514 ft 11 kts 186°
2026-05-06 07:50 6.05274 125.09682 514 ft 12 kts 173°
2026-05-06 07:51 6.05195 125.09692 514 ft 11 kts 172°
2026-05-06 07:51 6.05128 125.09701 514 ft 9 kts 171°
2026-05-06 07:51 6.05077 125.09709 514 ft 6 kts 171°
2026-05-06 07:51 6.05040 125.09714 515 ft 4 kts 171°
2026-05-06 07:52 6.05017 125.09718 515 ft 2 kts 171°
2026-05-06 07:52 6.05010 125.09719 515 ft 2 kts 171°
2026-05-06 07:52 6.04993 125.09721 515 ft 5 kts 171°
2026-05-06 07:52 6.04912 125.09740 516 ft 13 kts 185°
2026-05-06 07:53 6.04848 125.09737 515 ft 16 kts 176°
2026-05-06 07:53 6.04720 125.09751 514 ft 21 kts 174°
2026-05-06 07:53 6.04584 125.09768 515 ft 19 kts 173°
2026-05-06 07:53 6.04501 125.09797 515 ft 12 kts 121°
2026-05-06 07:54 6.04507 125.09876 514 ft 11 kts 82°
2026-05-06 07:54 6.04499 125.09935 514 ft 8 kts 126°
2026-05-06 07:54 6.04447 125.09950 514 ft 9 kts 174°
2026-05-06 07:54 6.04393 125.09918 514 ft 10 kts 251°
2026-05-06 07:55 6.04386 125.09856 515 ft 6 kts 264°
2026-05-06 07:55 6.04384 125.09832 515 ft 4 kts 269°
2026-05-06 07:55 6.04389 125.09812 515 ft 1 kts 291°
2026-05-06 07:55 6.04400 125.09799 515 ft 4 kts 314°
2026-05-06 07:56 6.04416 125.09791 516 ft 3 kts 340°
2026-05-06 07:56 6.04429 125.09788 516 ft 0 kts 351°
2026-05-06 07:58 6.04493 125.09779 515 ft 37 kts 353°
2026-05-06 07:58 6.04989 125.09715 515 ft 103 kts 353°
2026-05-06 07:59 6.05887 125.09599 514 ft 154 kts 350°
2026-05-06 07:59 6.07034 125.09426 778 ft 175 kts 351°
2026-05-06 07:59 6.08304 125.09258 1169 ft 193 kts 351°
2026-05-06 07:59 6.09695 125.09086 1600 ft 209 kts 353°
2026-05-06 08:00 6.11164 125.08909 2099 ft 221 kts 352°
2026-05-06 08:00 6.12729 125.08725 2519 ft 234 kts 353°
2026-05-06 08:00 6.14414 125.08681 2961 ft 251 kts 14°
2026-05-06 08:00 6.15930 125.09566 3514 ft 262 kts 50°
2026-05-06 08:01 6.16697 125.11230 4222 ft 268 kts 76°
2026-05-06 08:01 6.17103 125.13070 4987 ft 272 kts 76°
2026-05-06 08:01 6.17505 125.14901 5798 ft 274 kts 75°
2026-05-06 08:01 6.18037 125.16739 6583 ft 274 kts 65°
2026-05-06 08:02 6.18911 125.18456 7300 ft 277 kts 57°
2026-05-06 08:02 6.19947 125.20101 8028 ft 280 kts 55°
2026-05-06 08:02 6.21165 125.21634 8743 ft 282 kts 46°
2026-05-06 08:02 6.22573 125.23021 9469 ft 284 kts 36°
2026-05-06 08:03 6.24268 125.24047 10122 ft 287 kts 22°
2026-05-06 08:03 6.26240 125.24538 10523 ft 301 kts
2026-05-06 08:03 6.28339 125.24174 10869 ft 316 kts 338°
2026-05-06 08:03 6.30368 125.23171 11179 ft 332 kts 334°
2026-05-06 08:04 6.32446 125.22092 11695 ft 339 kts 334°
2026-05-06 08:04 6.34552 125.20991 12300 ft 343 kts 334°
2026-05-06 08:04 6.36674 125.19883 12893 ft 346 kts 334°
2026-05-06 08:04 6.38798 125.18779 13489 ft 349 kts 334°
2026-05-06 08:05 6.40971 125.17656 14015 ft 353 kts 334°
2026-05-06 08:05 6.43170 125.16525 14515 ft 356 kts 334°
2026-05-06 08:05 6.45387 125.15387 15013 ft 360 kts 334°
2026-05-06 08:05 6.47627 125.14237 15498 ft 364 kts 334°
2026-05-06 08:06 6.49891 125.13072 15988 ft 367 kts 334°
2026-05-06 08:06 6.52179 125.11892 16464 ft 371 kts 334°
2026-05-06 08:06 6.54488 125.10697 16955 ft 375 kts 334°
2026-05-06 08:06 6.56820 125.09491 17426 ft 379 kts 334°
2026-05-06 08:07 6.59178 125.08274 17898 ft 383 kts 334°
2026-05-06 08:07 6.61565 125.07043 18324 ft 386 kts 334°
2026-05-06 08:07 6.63961 125.05808 18728 ft 389 kts 334°
2026-05-06 08:07 6.66384 125.04559 19151 ft 392 kts 334°
2026-05-06 08:08 6.68817 125.03304 19577 ft 394 kts 334°
2026-05-06 08:08 6.71262 125.02041 19993 ft 397 kts 334°
2026-05-06 08:08 6.73730 125.00767 20397 ft 399 kts 334°
2026-05-06 08:08 6.76212 124.99484 20823 ft 402 kts 334°
2026-05-06 08:09 6.78703 124.98194 21241 ft 405 kts 334°
2026-05-06 08:09 6.81218 124.96894 21652 ft 407 kts 334°
2026-05-06 08:09 6.83746 124.95590 22055 ft 410 kts 334°
2026-05-06 08:09 6.86294 124.94276 22461 ft 413 kts 334°
2026-05-06 08:10 6.88825 124.92976 22852 ft 415 kts 335°
2026-05-06 08:10 6.91554 124.91924 23236 ft 416 kts 346°
2026-05-06 08:10 6.94348 124.91305 23571 ft 417 kts 350°
2026-05-06 08:10 6.97239 124.90718 23888 ft 420 kts 350°
2026-05-06 08:11 7.00108 124.90132 24210 ft 422 kts 349°
2026-05-06 08:11 7.02954 124.89549 24522 ft 423 kts 349°
2026-05-06 08:11 7.05846 124.88954 24831 ft 425 kts 349°
2026-05-06 08:11 7.08752 124.88356 25142 ft 427 kts 349°
2026-05-06 08:12 7.11669 124.87755 25446 ft 429 kts 349°
2026-05-06 08:12 7.14601 124.87144 25747 ft 431 kts 349°
2026-05-06 08:12 7.17543 124.86532 26050 ft 433 kts 349°
2026-05-06 08:12 7.20443 124.85931 26335 ft 434 kts 349°
2026-05-06 08:13 7.23421 124.85317 26625 ft 436 kts 349°
2026-05-06 08:13 7.26397 124.84707 26903 ft 438 kts 349°
2026-05-06 08:13 7.29389 124.84094 27172 ft 439 kts 349°
2026-05-06 08:13 7.32387 124.83480 27431 ft 441 kts 349°
2026-05-06 08:14 7.35398 124.82859 27688 ft 443 kts 349°
2026-05-06 08:14 7.38426 124.82230 27953 ft 445 kts 349°
2026-05-06 08:14 7.41464 124.81602 28211 ft 446 kts 349°
2026-05-06 08:14 7.44511 124.80973 28466 ft 448 kts 349°
2026-05-06 08:15 7.47572 124.80343 28710 ft 450 kts 349°
2026-05-06 08:15 7.50645 124.79711 28953 ft 452 kts 349°
2026-05-06 08:15 7.53733 124.79079 29197 ft 453 kts 349°
2026-05-06 08:15 7.56835 124.78444 29441 ft 455 kts 349°
2026-05-06 08:16 7.59938 124.77805 29682 ft 456 kts 349°
2026-05-06 08:16 7.63054 124.77161 29907 ft 458 kts 349°
2026-05-06 08:16 7.66180 124.76513 30098 ft 459 kts 349°
2026-05-06 08:16 7.69322 124.75860 30291 ft 461 kts 349°
2026-05-06 08:17 7.72462 124.75211 30465 ft 462 kts 349°
2026-05-06 08:17 7.75618 124.74561 30662 ft 463 kts 349°
2026-05-06 08:17 7.78782 124.73910 30832 ft 465 kts 349°
2026-05-06 08:17 7.81951 124.73257 31009 ft 466 kts 349°
2026-05-06 08:18 7.85089 124.72609 31189 ft 466 kts 349°
2026-05-06 08:18 7.88221 124.71959 31441 ft 465 kts 349°
2026-05-06 08:18 7.91388 124.71302 31694 ft 465 kts 349°
2026-05-06 08:18 7.94555 124.70645 31847 ft 464 kts 349°
2026-05-06 08:19 7.97669 124.69997 31896 ft 448 kts 349°
2026-05-06 08:19 8.00677 124.69369 31886 ft 439 kts 348°
2026-05-06 08:19 8.06697 124.68124 31881 ft 439 kts 349°
2026-05-06 08:20 8.12638 124.66900 31890 ft 439 kts 349°
2026-05-06 08:20 8.18621 124.65667 31885 ft 439 kts 348°
2026-05-06 08:21 8.24600 124.64427 31884 ft 439 kts 348°
2026-05-06 08:21 8.30548 124.63194 31878 ft 439 kts 348°
2026-05-06 08:22 8.36317 124.62000 31873 ft 439 kts 348°
2026-05-06 08:22 8.42229 124.60479 31868 ft 439 kts 338°
2026-05-06 08:23 8.47681 124.57690 31852 ft 440 kts 332°
2026-05-06 08:23 8.53095 124.54822 31845 ft 440 kts 332°
2026-05-06 08:24 8.58516 124.51951 31648 ft 433 kts 332°
2026-05-06 08:24 8.61157 124.50562 31411 ft 423 kts 333°
2026-05-06 08:24 8.63707 124.49220 31178 ft 418 kts 332°
2026-05-06 08:25 8.66285 124.47863 30962 ft 417 kts 332°
2026-05-06 08:25 8.68853 124.46510 30721 ft 416 kts 332°
2026-05-06 08:25 8.71411 124.45158 30487 ft 414 kts 332°
2026-05-06 08:25 8.73959 124.43812 30260 ft 412 kts 332°
2026-05-06 08:26 8.76493 124.42475 30038 ft 410 kts 332°
2026-05-06 08:26 8.79024 124.41137 29804 ft 407 kts 332°
2026-05-06 08:26 8.81518 124.39818 29405 ft 402 kts 333°
2026-05-06 08:26 8.83977 124.38519 28958 ft 398 kts 333°
2026-05-06 08:27 8.86395 124.37244 28530 ft 394 kts 333°
2026-05-06 08:27 8.88843 124.35950 28101 ft 390 kts 333°
2026-05-06 08:27 8.91163 124.34722 27692 ft 386 kts 333°
2026-05-06 08:27 8.93531 124.33468 27262 ft 383 kts 333°
2026-05-06 08:28 8.95884 124.32222 26837 ft 379 kts 333°
2026-05-06 08:28 8.98248 124.30971 26394 ft 377 kts 334°
2026-05-06 08:28 9.00533 124.29760 25960 ft 374 kts 334°
2026-05-06 08:28 9.02833 124.28542 25519 ft 372 kts 334°
2026-05-06 08:29 9.05124 124.27328 25069 ft 371 kts 334°
2026-05-06 08:29 9.07406 124.26118 24612 ft 370 kts 334°
2026-05-06 08:29 9.09680 124.24914 24138 ft 369 kts 334°
2026-05-06 08:29 9.11958 124.23711 23681 ft 369 kts 334°
2026-05-06 08:30 9.14231 124.22509 23172 ft 369 kts 334°
2026-05-06 08:30 9.16501 124.21305 22682 ft 367 kts 334°
2026-05-06 08:30 9.18755 124.20108 22229 ft 365 kts 334°
2026-05-06 08:30 9.20993 124.18920 21775 ft 363 kts 334°
2026-05-06 08:31 9.23225 124.17738 21332 ft 361 kts 334°
2026-05-06 08:31 9.25447 124.16562 20887 ft 359 kts 334°
2026-05-06 08:31 9.27657 124.15391 20446 ft 358 kts 334°
2026-05-06 08:31 9.29856 124.14224 20016 ft 357 kts 334°
2026-05-06 08:32 9.32048 124.13062 19579 ft 356 kts 334°
2026-05-06 08:32 9.34244 124.11897 19148 ft 355 kts 334°
2026-05-06 08:32 9.36430 124.10739 18717 ft 354 kts 334°
2026-05-06 08:32 9.38612 124.09582 18287 ft 354 kts 334°
2026-05-06 08:33 9.40768 124.08437 17825 ft 354 kts 334°
2026-05-06 08:33 9.42940 124.07281 17401 ft 351 kts 334°
2026-05-06 08:33 9.45096 124.06134 16969 ft 349 kts 334°
2026-05-06 08:33 9.47247 124.05010 16566 ft 346 kts 338°
2026-05-06 08:34 9.49516 124.04257 16163 ft 342 kts 348°
2026-05-06 08:34 9.54126 124.03137 15374 ft 338 kts 348°
2026-05-06 08:34 9.56406 124.02579 14987 ft 337 kts 347°
2026-05-06 08:35 9.58678 124.02022 14587 ft 335 kts 347°
2026-05-06 08:35 9.60942 124.01466 14193 ft 334 kts 347°
2026-05-06 08:35 9.63196 124.00909 13807 ft 333 kts 347°
2026-05-06 08:35 9.65447 124.00351 13389 ft 332 kts 347°
2026-05-06 08:36 9.67684 123.99795 12987 ft 330 kts 347°
2026-05-06 08:36 9.69910 123.99246 12593 ft 327 kts 347°
2026-05-06 08:36 9.71377 123.98885 12330 ft 326 kts 348°
2026-05-06 08:36 9.73602 123.98335 11933 ft 324 kts 348°
2026-05-06 08:37 9.75757 123.97802 11535 ft 321 kts 348°
2026-05-06 08:37 9.77889 123.97272 11149 ft 308 kts 348°
2026-05-06 08:37 9.79931 123.96766 10763 ft 296 kts 348°
2026-05-06 08:37 9.81878 123.96284 10501 ft 280 kts 349°
2026-05-06 08:38 9.83738 123.95825 10209 ft 273 kts 349°
2026-05-06 08:38 9.85591 123.95371 9862 ft 274 kts 349°
2026-05-06 08:38 9.87447 123.94918 9475 ft 274 kts 349°
2026-05-06 08:38 9.89291 123.94465 9100 ft 271 kts 349°
2026-05-06 08:39 9.91121 123.94012 8717 ft 269 kts 349°
2026-05-06 08:39 9.92935 123.93563 8348 ft 268 kts 349°
2026-05-06 08:39 9.94738 123.93120 7983 ft 266 kts 349°
2026-05-06 08:39 9.96536 123.92678 7594 ft 265 kts 349°
2026-05-06 08:40 9.98325 123.92237 7205 ft 264 kts 349°
2026-05-06 08:40 10.00108 123.91797 6821 ft 263 kts 348°
2026-05-06 08:40 10.01886 123.91356 6423 ft 263 kts 348°
2026-05-06 08:40 10.03662 123.90917 6019 ft 262 kts 348°
2026-05-06 08:41 10.05435 123.90479 5599 ft 262 kts 348°
2026-05-06 08:41 10.07142 123.89852 5188 ft 262 kts 333°
2026-05-06 08:41 10.08622 123.88769 4744 ft 264 kts 317°
2026-05-06 08:41 10.09914 123.87440 4284 ft 265 kts 316°
2026-05-06 08:42 10.11212 123.86115 3821 ft 266 kts 317°
2026-05-06 08:42 10.12517 123.84790 3350 ft 262 kts 317°
2026-05-06 08:42 10.13947 123.83767 2977 ft 242 kts 344°
2026-05-06 08:42 10.15515 123.83587 2916 ft 216 kts 11°
2026-05-06 08:43 10.16843 123.84081 2829 ft 197 kts 34°
2026-05-06 08:43 10.17857 123.85014 2742 ft 197 kts 45°
2026-05-06 08:43 10.18829 123.86000 2642 ft 198 kts 45°
2026-05-06 08:43 10.19805 123.86978 2546 ft 197 kts 44°
2026-05-06 08:44 10.20775 123.87947 2487 ft 190 kts 44°
2026-05-06 08:44 10.21685 123.88858 2376 ft 179 kts 44°
2026-05-06 08:44 10.22564 123.89733 2131 ft 175 kts 44°
2026-05-06 08:44 10.23412 123.90578 1902 ft 165 kts 44°
2026-05-06 08:45 10.24187 123.91352 1688 ft 152 kts 45°
2026-05-06 08:45 10.24906 123.92071 1550 ft 142 kts 44°
2026-05-06 08:45 10.25609 123.92772 1359 ft 142 kts 43°
2026-05-06 08:45 10.26319 123.93484 1175 ft 142 kts 44°
2026-05-06 08:46 10.27032 123.94187 937 ft 141 kts 44°
2026-05-06 08:46 10.27727 123.94869 658 ft 140 kts 46°
2026-05-06 08:46 10.28399 123.95567 425 ft 137 kts 44°
2026-05-06 08:46 10.29063 123.96246 261 ft 135 kts 43°
2026-05-06 08:47 10.29734 123.96908 68 ft 134 kts 44°
2026-05-06 08:47 10.30348 123.97532 37 ft 115 kts 44°
2026-05-06 08:47 10.30703 123.97891 36 ft 43 kts 45°
2026-05-06 08:47 10.30912 123.98098 34 ft 39 kts 45°
2026-05-06 08:48 10.31057 123.98240 35 ft 30 kts 36°
2026-05-06 08:48 10.31230 123.98330 39 ft 29 kts 23°
2026-05-06 08:48 10.31305 123.98353 39 ft 0 kts
2026-05-06 08:49 10.31324 123.98355 39 ft 6 kts
2026-05-06 08:49 10.31368 123.98343 39 ft 6 kts 342°
2026-05-06 08:50 10.31398 123.98320 38 ft 4 kts 317°
2026-05-06 08:50 10.31417 123.98303 40 ft 3 kts 317°
2026-05-06 08:50 10.31429 123.98291 40 ft 3 kts 314°
2026-05-06 08:50 10.31440 123.98278 39 ft 2 kts 310°